Tiempo cada hora Dabhoi

Hoy, 28 Noviembre, Sábado

Tiempo Temperatura Precipitaciones Viento Presión Humedad
00:00 +21°C° 0 mm 4 mps 759 mmHg 43%
01:00 +21°C° 0 mm 4 mps 759 mmHg 43%
02:00 +20°C° 0 mm 4 mps 759 mmHg 44%
03:00 +20°C° 0 mm 4 mps 759 mmHg 44%
04:00 +19°C° 0 mm 4 mps 759 mmHg 44%
05:00 +19°C° 0 mm 4 mps 759 mmHg 46%
06:00 +19°C° 0 mm 4 mps 760 mmHg 45%
07:00 +20°C° 0 mm 4 mps 760 mmHg 44%
08:00 +21°C° 0 mm 4 mps 761 mmHg 44%
09:00 +25°C° 0 mm 4 mps 760 mmHg 39%
10:00 +27°C° 0 mm 5 mps 760 mmHg 35%
11:00 +30°C° 0 mm 5 mps 759 mmHg 30%
12:00 +32°C° 0 mm 5 mps 758 mmHg 30%
13:00 +33°C° 0 mm 5 mps 757 mmHg 29%
14:00 +34°C° 0 mm 5 mps 757 mmHg 28%
15:00 +32°C° 0 mm 4 mps 756 mmHg 32%
16:00 +30°C° 0 mm 3 mps 756 mmHg 35%
17:00 +28°C° 0 mm 2 mps 756 mmHg 39%
18:00 +27°C° 0 mm 2 mps 757 mmHg 39%
19:00 +26°C° 0 mm 2 mps 757 mmHg 39%
20:00 +25°C° 0 mm 2 mps 758 mmHg 39%
21:00 +24°C° 0 mm 2 mps 758 mmHg 39%
22:00 +24°C° 0 mm 3 mps 758 mmHg 39%
23:00 +24°C° 0 mm 3 mps 758 mmHg 39%

Mañana, 29 Noviembre, Domingo

Tiempo Temperatura Precipitaciones Viento Presión Humedad
00:00 +22°C° 0 mm 3 mps 758 mmHg 40%
01:00 +22°C° 0 mm 3 mps 757 mmHg 41%
02:00 +22°C° 0 mm 3 mps 757 mmHg 43%
03:00 +22°C° 0 mm 4 mps 757 mmHg 44%
04:00 +22°C° 0 mm 4 mps 757 mmHg 45%
05:00 +22°C° 0 mm 4 mps 757 mmHg 47%
06:00 +23°C° 0 mm 4 mps 757 mmHg 47%
07:00 +23°C° 0 mm 4 mps 758 mmHg 46%
08:00 +25°C° 0 mm 4 mps 759 mmHg 46%
09:00 +27°C° 0 mm 4 mps 758 mmHg 43%
10:00 +29°C° 0 mm 4 mps 758 mmHg 39%
11:00 +33°C° 0 mm 4 mps 758 mmHg 36%
12:00 +34°C° 0 mm 3 mps 757 mmHg 35%
13:00 +34°C° 0 mm 2 mps 756 mmHg 35%
14:00 +35°C° 0 mm 2 mps 755 mmHg 34%
15:00 +34°C° 0 mm 2 mps 755 mmHg 37%
16:00 +32°C° 0 mm 2 mps 755 mmHg 40%
17:00 +31°C° 0 mm 2 mps 755 mmHg 43%
18:00 +30°C° 0 mm 2 mps 756 mmHg 44%
19:00 +30°C° 0 mm 3 mps 756 mmHg 46%
20:00 +29°C° 0 mm 3 mps 757 mmHg 47%
21:00 +29°C° 0 mm 3 mps 757 mmHg 47%
22:00 +28°C° 0 mm 3 mps 757 mmHg 46%
23:00 +28°C° 0 mm 2 mps 757 mmHg 46%

Pasado mañana, 30 Noviembre, Lunes

Tiempo Temperatura Precipitaciones Viento Presión Humedad
00:00 +28°C° 0 mm 2 mps 757 mmHg 46%
01:00 +28°C° 0 mm 2 mps 756 mmHg 46%
02:00 +27°C° 0 mm 2 mps 756 mmHg 46%
03:00 +27°C° 0 mm 2 mps 756 mmHg 47%
04:00 +27°C° 0 mm 2 mps 756 mmHg 47%
05:00 +27°C° 0 mm 2 mps 756 mmHg 48%
06:00 +28°C° 0 mm 2 mps 756 mmHg 48%
07:00 +28°C° 0 mm 2 mps 757 mmHg 48%
08:00 +28°C° 0 mm 2 mps 757 mmHg 49%
09:00 +30°C° 0 mm 2 mps 757 mmHg 45%
10:00 +32°C° 0 mm 2 mps 757 mmHg 41%
11:00 +34°C° 0 mm 1 mps 757 mmHg 37%
12:00 +34°C° 0 mm 1 mps 756 mmHg 36%
13:00 +36°C° 0 mm 2 mps 755 mmHg 35%
14:00 +37°C° 0 mm 2 mps 755 mmHg 34%
15:00 +36°C° 0 mm 2 mps 755 mmHg 36%
16:00 +35°C° 0 mm 2 mps 755 mmHg 39%
17:00 +33°C° 0 mm 1 mps 755 mmHg 41%
18:00 +32°C° 0 mm 2 mps 755 mmHg 42%
19:00 +31°C° 0 mm 2 mps 756 mmHg 43%
20:00 +31°C° 0 mm 2 mps 756 mmHg 44%
21:00 +30°C° 0 mm 2 mps 756 mmHg 43%
22:00 +30°C° 0 mm 2 mps 757 mmHg 43%
23:00 +30°C° 0 mm 3 mps 757 mmHg 42%

1 Diciembre, Martes

Tiempo Temperatura Precipitaciones Viento Presión Humedad
00:00 +29°C° 0 mm 3 mps 756 mmHg 42%
01:00 +28°C° 0 mm 2 mps 756 mmHg 42%
02:00 +27°C° 0 mm 2 mps 756 mmHg 43%
03:00 +27°C° 0 mm 2 mps 756 mmHg 45%
04:00 +26°C° 0 mm 2 mps 756 mmHg 47%
05:00 +26°C° 0 mm 2 mps 756 mmHg 49%
06:00 +27°C° 0 mm 3 mps 757 mmHg 49%
07:00 +27°C° 0 mm 3 mps 757 mmHg 49%
08:00 +28°C° 0 mm 3 mps 758 mmHg 49%
09:00 +30°C° 0 mm 3 mps 758 mmHg 44%
10:00 +32°C° 0 mm 2 mps 757 mmHg 40%
11:00 +35°C° 0 mm 2 mps 757 mmHg 35%
12:00 +36°C° 0 mm 2 mps 756 mmHg 34%
13:00 +37°C° 0 mm 2 mps 756 mmHg 32%
14:00 +37°C° 0 mm 2 mps 755 mmHg 31%
15:00 +36°C° 0 mm 2 mps 755 mmHg 33%
16:00 +35°C° 0 mm 2 mps 755 mmHg 35%
17:00 +34°C° 0 mm 2 mps 755 mmHg 37%
18:00 +32°C° 0 mm 2 mps 755 mmHg 37%
19:00 +30°C° 0 mm 2 mps 756 mmHg 38%
20:00 +29°C° 0 mm 3 mps 756 mmHg 38%
21:00 +28°C° 0 mm 2 mps 756 mmHg 38%
22:00 +28°C° 0 mm 2 mps 757 mmHg 37%
23:00 +27°C° 0 mm 2 mps 757 mmHg 37%

2 Diciembre, Miércoles

Tiempo Temperatura Precipitaciones Viento Presión Humedad
00:00 +26°C° 0 mm 2 mps 757 mmHg 37%
01:00 +26°C° 0 mm 2 mps 756 mmHg 38%
02:00 +25°C° 0 mm 2 mps 756 mmHg 38%
03:00 +25°C° 0 mm 2 mps 756 mmHg 38%
04:00 +24°C° 0 mm 2 mps 756 mmHg 37%
05:00 +24°C° 0 mm 2 mps 756 mmHg 37%
06:00 +25°C° 0 mm 2 mps 756 mmHg 35%
07:00 +25°C° 0 mm 2 mps 757 mmHg 34%
08:00 +26°C° 0 mm 2 mps 757 mmHg 33%
09:00 +29°C° 0 mm 2 mps 757 mmHg 29%
10:00 +31°C° 0 mm 2 mps 757 mmHg 25%
11:00 +35°C° 0 mm 2 mps 757 mmHg 20%
12:00 +36°C° 0 mm 2 mps 756 mmHg 20%
13:00 +36°C° 0 mm 2 mps 755 mmHg 19%
14:00 +37°C° 0 mm 2 mps 754 mmHg 18%
15:00 +36°C° 0 mm 2 mps 754 mmHg 21%
16:00 +34°C° 0 mm 2 mps 754 mmHg 25%
17:00 +32°C° 0 mm 2 mps 754 mmHg 28%
18:00 +30°C° 0 mm 2 mps 754 mmHg 29%
19:00 +29°C° 0 mm 2 mps 755 mmHg 30%
20:00 +27°C° 0 mm 2 mps 755 mmHg 31%
21:00 +27°C° 0 mm 1 mps 755 mmHg 31%
22:00 +26°C° 0 mm 1 mps 755 mmHg 32%
23:00 +25°C° 0 mm 1 mps 755 mmHg 32%

3 Diciembre, Jueves

Tiempo Temperatura Precipitaciones Viento Presión Humedad
00:00 +25°C° 0 mm 1 mps 755 mmHg 32%
01:00 +24°C° 0 mm 1 mps 755 mmHg 32%
02:00 +24°C° 0 mm 1 mps 754 mmHg 31%
03:00 +23°C° 0 mm 1 mps 755 mmHg 31%
04:00 +23°C° 0 mm 1 mps 755 mmHg 31%
05:00 +22°C° 0 mm 1 mps 755 mmHg 31%
06:00 +23°C° 0 mm 1 mps 755 mmHg 31%
07:00 +24°C° 0 mm 1 mps 756 mmHg 31%
08:00 +25°C° 0 mm 1 mps 756 mmHg 30%
09:00 +28°C° 0 mm 1 mps 756 mmHg 27%
10:00 +30°C° 0 mm 1 mps 756 mmHg 24%
11:00 +31°C° 0 mm 0 mps 756 mmHg 20%
12:00 +34°C° 0 mm 1 mps 755 mmHg 19%
13:00 +35°C° 0 mm 1 mps 755 mmHg 18%
14:00 +36°C° 0 mm 1 mps 754 mmHg 17%
15:00 +34°C° 0 mm 1 mps 754 mmHg 19%
16:00 +33°C° 0 mm 1 mps 754 mmHg 22%
17:00 +31°C° 0 mm 2 mps 754 mmHg 25%
18:00 +30°C° 0 mm 1 mps 754 mmHg 25%
19:00 +29°C° 0 mm 1 mps 754 mmHg 26%
20:00 +27°C° 0 mm 1 mps 755 mmHg 27%
21:00 +27°C° 0 mm 1 mps 755 mmHg 29%
22:00 +26°C° 0 mm 1 mps 755 mmHg 31%
23:00 +25°C° 0 mm 1 mps 755 mmHg 33%
Mostrar más

Necesitamos Su Consentimiento

Meteoprog y nuestros Proveedores de Servicios pueden almacenar y acceder a sus datos personales como cookies, identificadores de dispositivo u otras tecnologías similares de su dispositivo y procesar dichos datos para personalizar contenido y anuncios, además de ofrecer funciones de redes sociales y analizar el tráfico.

  • Almacenar y/o acceder a información en su dispositivo

    Se puede almacenar o acceder a cookies, identificadores de dispositivo u otra información de su dispositivo para los fines anteriormente indicados.

  • Anuncios y contenido personalizados, medición de anuncios y contenido, percepciones del público, y desarrollo de productos

    Los anuncios y el contenido pueden personalizarse en base a su perfil. Se pueden añadir más datos para personalizar mejor los anuncios y contenidos. Se puede medir el rendimiento de los anuncios y contenidos. Se puede obtener la percepción sobre el público que ha visto los anuncios y contenidos. Dichos datos pueden usarse para desarrollar o mejorar la experiencia del usuario, sistemas y software.

Al hacer clic en ‘Estoy De Acuerdo’ usted permitirá el uso de las cookies, identificadores de dispositivo, balizas web u otras tecnologías similares indicadas. Su configuración puede cambiarse desde el navegador de su dispositivo.

Para ciertos fines, los intereses legítimos pueden ser considerados por encima del consentimiento. Puede leer más sobre ello en nuestra Política de Privacidad y Cookies.